Regional Weather Roundup
Issued by NWS

Home | Current Version | Previous Version | Text Only | Print | Product List | Glossary Off
Versions: 1 2 3 4 5 6 7 8 9 10 11 12 13 14 15 16 17 18 19 20 21 22 23 24 25 26 27 28 29 30 31 32 33 34 35 36 37 38 39 40 41 42 43 44 45 46 47 48 49 50

000
ASUS45 KSLC 052210
RWRUT

UTAH REGIONAL WEATHER ROUNDUP
NATIONAL WEATHER SERVICE SALT LAKE CITY UT
300 PM MST THU MAR 05 2015

UTZ001>011-023>025-052300-

NORTHERN UTAH

CITY           SKY/WX    TMP DP  RH WIND       PRES   REMARKS
BRIGHAM CITY   SUNNY     44  18  34 S6        30.42F
HILL AFB       SUNNY     43  14  30 CALM      30.40F
LOGAN          SUNNY     45  19  35 SE6       30.40S
OGDEN          SUNNY     45  18  34 S5        30.41S
PROVO AIRPORT  MOSUNNY   43  27  52 VRB5      30.42S
SALT LAKE CITY MOSUNNY   48  19  31 NW7       30.41S
VERNAL         SUNNY     36  15  42 CALM      30.36F
WENDOVER       SUNNY     45  19  36 SE5       30.40S
HEBER CITY     SUNNY     41  18  38 W5        30.38S
WEST JORDAN    SUNNY     46  21  36 CALM      30.41S

$$

UTZ012>022-026-027-052300-

SOUTHERN/CENTRAL UTAH

CITY           SKY/WX    TMP DP  RH WIND       PRES   REMARKS
BLANDING       SUNNY     41  24  49 SW6       30.43S
BRYCE CANYON   SUNNY     35   5  28 NE8       30.37S WCI  29
CEDAR CITY     SUNNY     41  11  29 E3        30.37S
DELTA          SUNNY     46  20  36 CALM      30.40F
HANKSVILLE     SUNNY     48  18  29 SW5       30.38F
MILFORD        SUNNY     47  21  35 NE8       30.37F
MOAB/CYNLANDS  SUNNY     48  15  26 VRB7      30.35F
PRICE          SUNNY     40  17  39 S6        30.35F
ST GEORGE      CLEAR     55  25  30 NW6       30.37F
KANAB          SUNNY     50  21  32 S3        30.38F

$$

REGIONAL REPORTS     COLORADO/ARIZONA

CITY           SKY/WX    TMP DP  RH WIND       PRES   REMARKS
CRAIG, CO      MOSUNNY   34  15  46 E7        30.34  WCI  28
GRAND JUNCTION SUNNY     42  14  32 CALM      30.36F
RIFLE          SUNNY     42  13  30 MISG      30.35F
MONTROSE       SUNNY     41  15  35 SW3       30.36F
CORTEZ         SUNNY     45  20  36 W8        30.34F
PAGE, AZ       SUNNY     50  22  33 VRB5      30.35F
GRAND CANYON   SUNNY     48  -5  11 W7        30.35F
KINGMAN        SUNNY     61  26  26 N13       30.30S
FLAGSTAFF      SUNNY     44  10  25 E9        30.34F

$$

REGIONAL REPORTS    NEVADA/IDAHO/WYOMING

CITY           SKY/WX    TMP DP  RH WIND       PRES   REMARKS
LAS VEGAS, NV  SUNNY     63  19  18 VRB3      30.28F
ELY            SUNNY     50  16  25 N6        30.36F
ELKO           SUNNY     53   8  16 SW9       30.35F
POCATELLO, ID  SUNNY     48  12  23 W15       30.35F
BURLEY         SUNNY     52  13  21 W8        30.33F
EVANSTON, WY   MOSUNNY   35  18  49 SW16      30.34F WCI  25
ROCK SPRINGS   SUNNY     35  21  56 W18       30.27S WCI  24
KEMMERER       SUNNY     36  14  41 W21G26    30.30F WCI  24

$$


USA.gov is the U.S. government's official web portal to all federal, state and local government web resources and services.